Flag for Germany Weather past 2 weeks in Weißenfels, Saxony-Anhalt, Germany

Now
83 °F

Partly sunny.


Feels Like: 84 °F
Forecast: 55 / 70 °F
Wind: 1 mph from Northwest

Location: Leipzig-Schkeuditz

Current Time: Sep 1, 2015 at 4:14:14 PM

Latest Report: Sep 1, 2015 at 3:00 PM


Visibility: 19 mi

Pressure: 29.72 "Hg

Humidity: 50%

Dew point: 63 °F

Location of WeißenfelsLocation

Historic Weather in Weißenfels — Graph

°F

Weißenfels temperature yesterday

Maximum temperature yesterday: 92 °F (at 4:00 PM)
Minimum temperature yesterday: 67 °F (at 7:00 AM)
Average temperature yesterday: 79 °F

Past Weeks' High & Low Weather Summary

 TemperatureHumidityPressure
High92 °F (Aug 31, 4:00 PM)98% (Aug 18, 1:00 AM)30.30 "Hg (Aug 18, 1:00 AM)
Low53 °F (Aug 21, 6:00 AM)27% (Aug 22, 5:00 PM)29.68 "Hg (Aug 24, 7:00 PM)
Average67 °F73%30.02 "Hg
* Reported Aug 17 3:00 PM — Sep 1 3:00 PM, Weißenfels, Weather by CustomWeather, © 2015

Note: Actual official high and low records may vary slightly from our data, if they occured in-between our weather recording intervals... More about our weather records

Advertising

Weißenfels weather history for previous 24 hours

 ConditionsComfort  
Time TempWeatherWind HumidityBarometerVisibility
3:00 PM
Tue, Sep 1
83 °FPartly sunny.1 mph50%29.72 "Hg19 mi
2:00 PM82 °FPassing clouds.1 mph52%29.73 "Hg17 mi
1:00 PM81 °FPassing clouds.2 mph57%29.74 "Hg19 mi
12:00 PM78 °FSunny.1 mph58%29.76 "Hg19 mi
10:00 AM74 °FPassing clouds.2 mph66%29.78 "Hg22 mi
9:00 AM72 °FPassing clouds.3 mph72%29.78 "Hg25 mi
8:00 AM69 °FPassing clouds.3 mph81%29.78 "Hg25 mi
7:00 AM66 °FPassing clouds.2 mph81%29.78 "Hg25 mi
6:00 AM67 °FPassing clouds.2 mph81%29.78 "Hg31 mi
5:00 AM68 °FPassing clouds.3 mph78%29.76 "Hg31 mi
4:00 AM71 °FClear.3 mph72%29.76 "Hg31 mi
3:00 AM72 °FClear.3 mph71%29.75 "Hg31 mi
2:00 AM72 °FPassing clouds.3 mph73%29.76 "Hg31 mi
1:00 AM73 °FPassing clouds.2 mph73%29.77 "Hg37 mi
10:00 PM
Mon, Aug 31
79 °FPassing clouds.1 mph63%29.77 "Hg37 mi
9:00 PM80 °FPassing clouds.3 mph61%29.77 "Hg37 mi
8:00 PM83 °FPassing clouds.2 mph55%29.77 "Hg37 mi
7:00 PM88 °FPassing clouds.1 mph44%29.78 "Hg37 mi
6:00 PM91 °FPassing clouds.2 mph39%29.78 "Hg28 mi
4:00 PM92 °FScattered clouds.1 mph37%29.83 "Hg25 mi
Weather by CustomWeather, © 2015

See weather overviewHow to use our weather pages